Kezdőlap
METAR-TAF:

METAR-TAF

Repülőterek :

Stevens Point Municipal Airport

Stevens Point, Wisconsin, Amerikai Egyesült Államok

földrajzi szélesség: 44-32-42N, földrajzi hosszúság: 089-31-49W, magasság: 338 m

Jelenlegi meteorológiai megfigyelések

A jelentés 34 perccel ezelõtt készült, 07:15 UTC
Szélcsend
Hőmérséklet 19°C
Páratartalom 100%
Légköri nyomás 1015 hPa
Látótávolság: 16.1 km
Derült ég

METAR: KSTE 260715Z AUTO 00000KT 10SM CLR 19/19 A2996 RMK AO2 T01910186

Idő: 02:49 (07:49 UTC)


TAF: hiányzik

Meteorológiai megfigyelések és előrejelzések több, mint 4000 repülőtéren (METAR és TAF jelentéseket).

A térképen piros és sárga pontok jelzik az elérhető meteorológiai állomásokat.

Mozgassa az egeret a pont fölött, hogy megjelenjen az állomás neve.

Azután kattintson az időjárási megfigyelések és előrejelzések megtekintéséhez.

A térkép megváltoztatása: kattintson a fekete keresztel jelölt zöld gombra ráközelítéshez, a vonallal jelölt zöld gombra távolításhoz, vagy a zöld nyilakra a szomszédos térképek eléréséhez.


METAR-TAF: